This is the latest recevied weather packets stored in our database for station/object SQ5OUZ-1. If no packets are shown the sender has not sent any weather packets the latest 10 day(s).
| Time | Temp. | Humidity | Pressure | Rain* | Wind** | Luminosity | Snow |
|---|---|---|---|---|---|---|---|
| 1777567365 | 11.67° C | 22% | 1027.8 hPa | - | - | - | - |
| 1777566461 | 11.67° C | 21% | 1027.8 hPa | - | - | - | - |
| 1777565558 | 12.22° C | 21% | 1027.9 hPa | - | - | - | - |
| 1777564655 | 12.22° C | 20% | 1027.9 hPa | - | - | - | - |
| 1777563752 | 12.22° C | 20% | 1027.9 hPa | - | - | - | - |
| 1777562848 | 12.78° C | 19% | 1027.8 hPa | - | - | - | - |
| 1777561945 | 12.22° C | 19% | 1027.9 hPa | - | - | - | - |
| 1777561041 | 11.67° C | 20% | 1027.8 hPa | - | - | - | - |
| 1777560138 | 12.22° C | 20% | 1028 hPa | - | - | - | - |
| 1777559235 | 12.22° C | 21% | 1028.1 hPa | - | - | - | - |
| 1777558332 | 12.78° C | 20% | 1028.2 hPa | - | - | - | - |
| 1777557429 | 12.78° C | 19% | 1028.4 hPa | - | - | - | - |
| 1777556525 | 12.78° C | 19% | 1028.4 hPa | - | - | - | - |
| 1777555622 | 13.33° C | 20% | 1028.6 hPa | - | - | - | - |
| 1777554719 | 12.22° C | 21% | 1028.8 hPa | - | - | - | - |
| 1777553816 | 11.67° C | 20% | 1028.9 hPa | - | - | - | - |
| 1777552912 | 11.67° C | 21% | 1029.2 hPa | - | - | - | - |
| 1777552009 | 12.22° C | 20% | 1029.3 hPa | - | - | - | - |
| 1777550202 | 11.67° C | 22% | 1029.5 hPa | - | - | - | - |
| 1777549299 | 12.22° C | 22% | 1029.5 hPa | - | - | - | - |
| 1777548396 | 12.22° C | 21% | 1029.7 hPa | - | - | - | - |
| 1777547493 | 12.22° C | 22% | 1029.7 hPa | - | - | - | - |
| 1777546589 | 12.22° C | 22% | 1030 hPa | - | - | - | - |
| 1777545686 | 13.33° C | 21% | 1030.1 hPa | - | - | - | - |
| 1777544783 | 13.89° C | 18% | 1030.2 hPa | - | - | - | - |
* Rain since midnight (hover to see other rain measurements)
** Current wind speed in m/s (hover to see current wind gust speed)